Погода в Терновке

Россия / Белгородская область     50°43′41″N   36°35′34″E
В апреле 2022 года жителям России запретили посещать сайт meteo.paraplan.net по решению Генеральной прокуратуры. Аудитория сайта уменьшилась в 10 раз. Владельцы сайта не видят смысла в поддержке погодного сервера в таких условиях. Сайт будет закрыт в октябре.
темп.,
°C
ветер,
м/с
пор.,
м/с
влажн.,
%
обл.,
%
осадки,
мм/ч
давл.,
гПа
погр.,
м
25 сентября, вс
вс2500:00+8з61186100 0.1 1009748
03:00+8зюз81487100 0.6 10091188
06:00+8з91590100 3.8 10071312
09:00+8з81487100 5.6 10091279
12:00+9з8137584 0.0 10111053
15:00+14з9135128 0.0 10111604
18:00+12з713575 0.0 1012742
21:00+9зюз513705 0.0 1014323
26 сентября, пн
пн2600:00+8зюз5127329 0.0 1014342
03:00+8з41170100 0.0 1015311
06:00+9юз3670100 0.0 1014162
09:00+11зюз366575 0.0 1015296
12:00+15зюз575394 0.0 10141356
15:00+16з4649100 0.0 10141775
18:00+13ссз116797 0.0 101417
21:00+12вюв2273100 0.0 101335
27 сентября, вт
вт2700:00+10вюв2393100 3.6 1013123
03:00+10в3696100 7.1 1011236
06:00+10юв2394100 0.7 100972
09:00+13ююз347997 0.9 1009260
12:00+16ююз3672100 0.0 1009655
15:00+14ююв2290100 0.4 100891
18:00+13юв3698100 1.8 1007196
21:00+13вюв41197100 2.2 1006372
28 сентября, ср
ср2800:00+13юв51382100 0.0 1004362
03:00+12в4592100 1.1 1002118
06:00+12юв51088100 0.4 1001351
09:00+13ююв51092100 0.7 1000382
12:00+16ююз588890 0.4 1000669
15:00+16зюз7877100 0.8 1001929
18:00+14зюз51082100 0.1 1004510
21:00+13юз4980100 0.1 1006306
29 сентября, чт
чт2900:00+11з37901 0.0 1007142
03:00+10зсз34930 0.0 100957
06:00+9зсз12944 0.0 101111
09:00+13ю00828 0.0 1013198
12:00+17юз12645 0.0 1013877
15:00+19ююв114877 0.0 10141279
18:00+16в3363100 0.0 101527
21:00+14вюв3570100 0.0 101681